Back to catalog

SL-14 R/B

AlivePO
NORAD 17192·ROCKET BODY·🇷🇺 Russia

Launched Dec 10, 1986 from Plesetsk Cosmodrome

Loading…

Next Passes (next 24 hours)

TLE

FreshSource: Space-Track

Epoch: Sep 14, 2026, 15:03 UTC

1 17192U 86097B   26257.62729309  .00000298  00000-0  31217-4 0  9997
2 17192  82.5078 324.1190 0017532 117.4653  43.3649 14.86045706128402

Track SL-14 R/B in real time with AllMySat

Download on the App Store